BEIDOU 8 (C08)

Last updated on Jan. 15, 2020, 4:41 a.m. UTC

1 37384U 11013A   20013.44552323 -.00000183  00000-0  10000-3 0  9992
2 37384  59.0532  63.1940 0046457 207.4223 117.8237  1.00249351 32144
UTC
Height (km)
Latitude
Longitude
Inclination
Orbital Period
UTC large
Height (km)
Speed (km/s)
/
Latitude / Longitude
Inclination (degrees)
Orbital Period (minutes)
Azimuth
Elevation
Range (km)
Doppler Factor
iOS Compass Heading
iOS Angle

Next 30 passes for location: Hong Kong

Rise time Rise Azimuth (degrees) Set time Set Azimuth (degrees) Duration Max altitude (degrees)

No matching passes for this satellites